CW9114 Weather Reports


Display with metric or nautical units.
time (UTC)temp
F
wind
direction
speed
MPH
gust
MPH
rain 1hr
in
rain 24hr
in
rain mn
in
humidity
%
barometer
mb
20260904041534 60 13 0.0 0.0 0.00 0.00 0.00 94 1015.5
20260904040033 60 13 0.0 1.0 0.00 0.00 0.00 94 1015.4
20260904034533 60 15 0.0 0.0 0.00 0.00 0.00 93 1015.4
20260904033013 60 14 0.0 0.0 0.00 0.00 0.00 93 1015.5
20260904031519 60 16 0.0 0.0 0.00 0.00 0.00 93 1015.8
20260904030030 60 16 0.0 0.0 0.00 0.00 0.00 93 1015.8
20260904024531 60 18 0.0 0.0 0.00 0.00 0.00 93 1015.9
20260904023033 60 19 0.0 0.0 0.00 0.00 0.00 93 1015.9
20260904021516 60 17 0.0 0.0 0.00 0.00 0.00 93 1016.1
20260904020038 60 16 0.0 0.0 0.00 0.00 0.00 92 1016.0
20260904014531 61 17 0.0 0.0 0.00 0.00 0.00 92 1015.8
20260904013035 61 20 0.0 0.0 0.00 0.00 0.00 91 1015.7
20260904011534 61 18 0.0 0.0 0.00 0.00 0.00 90 1015.1
20260904010018 62 21 0.0 0.0 0.00 0.00 0.00 89 1015.1
20260904004527 62 22 0.0 0.0 0.00 0.00 0.00 88 1014.7
20260904003032 63 23 0.0 0.0 0.00 0.00 0.00 86 1015.0
20260904001533 64 23 0.0 0.0 0.00 0.00 0.00 86 1015.1
20260904000013 65 19 0.0 0.0 0.00 0.00 0.00 85 1015.1
20260903234522 65 20 0.0 1.0 0.00 0.00 0.00 83 1015.3
20260903233034 66 23 0.0 3.0 0.00 0.00 0.00 82 1015.3
20260903231530 66 28 0.0 5.0 0.00 0.00 0.00 82 1015.3
20260903230012 67 33 1.0 5.0 0.00 0.00 0.00 83 1015.2
20260903224519 67 29 1.0 5.0 0.00 0.00 0.00 81 1015.1
20260903223025 68 34 0.0 4.0 0.00 0.00 0.00 81 1014.9
20260903221538 68 26 0.0 4.0 0.00 0.00 0.00 79 1014.9
20260903220055 68 49 0.0 5.0 0.00 0.00 0.00 79 1014.7
20260903214516 68 44 0.0 4.0 0.00 0.00 0.00 78 1014.6
20260903213020 69 47 1.0 6.0 0.00 0.00 0.00 77 1014.4
20260903211527 70 34 1.0 5.0 0.00 0.00 0.00 76 1014.7
20260903210034 70 113 1.0 3.0 0.00 0.00 0.00 74 1014.7
20260903204534 71 86 0.0 6.0 0.00 0.00 0.00 73 1014.7
20260903203023 71 114 1.0 8.0 0.00 0.00 0.00 71 1014.7
20260903201523 71 68 2.0 8.0 0.00 0.00 0.00 68 1014.7
20260903200041 72 292 2.0 8.0 0.00 0.00 0.00 67 1014.9
20260903194541 72 189 0.0 7.0 0.00 0.00 0.00 66 1015.0
20260903193031 72 60 1.0 8.0 0.00 0.00 0.00 66 1015.2
20260903191519 72 49 2.0 8.0 0.00 0.00 0.00 64 1015.2
20260903190027 74 72 0.0 7.0 0.00 0.00 0.00 65 1015.1
20260903184530 74 41 0.0 9.0 0.00 0.00 0.00 70 1015.0
20260903183051 75 44 0.0 7.0 0.00 0.00 0.00 64 1015.0
20260903181513 76 17 1.0 7.0 0.00 0.00 0.00 60 1015.2
20260903180019 76 4 1.0 9.0 0.00 0.00 0.00 61 1015.3
20260903174529 76 37 0.0 6.0 0.00 0.00 0.00 59 1015.3
20260903173034 75 48 1.0 8.0 0.00 0.00 0.00 62 1015.1
20260903171533 76 78 4.0 8.0 0.00 0.00 0.00 61 1015.2
20260903170018 76 61 2.0 8.0 0.00 0.00 0.00 62 1015.2
20260903164527 75 19 0.0 3.0 0.00 0.00 0.00 62 1015.2
20260903163030 75 51 1.0 4.0 0.00 0.00 0.00 63 1015.3
20260903161541 74 30 0.0 3.0 0.00 0.00 0.00 68 1015.4
20260903160036 72 101 0.0 3.0 0.00 0.00 0.00 73 1015.3
20260903154519 70 127 0.0 2.0 0.00 0.00 0.00 79 1015.4
20260903153028 69 58 1.0 3.0 0.00 0.00 0.00 80 1015.3
20260903151531 67 51 1.0 4.0 0.00 0.00 0.00 82 1015.3
20260903150008 66 51 0.0 4.0 0.00 0.00 0.00 89 1015.4
20260903144516 65 41 0.0 3.0 0.00 0.00 0.00 92 1015.5
20260903143028 64 34 0.0 2.0 0.00 0.00 0.00 97 1015.7
20260903141505 63 34 0.0 2.0 0.00 0.00 0.00 97 1015.7
20260903140014 62 34 0.0 1.0 0.00 0.00 0.00 97 1015.7
20260903134512 60 37 0.0 1.0 0.00 0.00 0.00 97 1015.8
20260903133023 58 39 0.0 0.0 0.00 0.00 0.00 97 1015.8
20260903131526 57 360 0.0 0.0 0.00 0.00 0.00 97 1015.7
20260903130006 56 360 0.0 0.0 0.00 0.00 0.00 96 1015.6
20260903124508 55 360 0.0 0.0 0.00 0.00 0.00 96 1015.5
20260903123015 54 360 0.0 0.0 0.00 0.00 0.00 96 1015.5
20260903121538 54 360 0.0 0.0 0.00 0.00 0.00 96 1015.3
20260903120028 54 360 0.0 0.0 0.00 0.00 0.00 95 1015.1
20260903114508 53 360 0.0 0.0 0.00 0.00 0.00 95 1015.0
20260903113017 54 360 0.0 0.0 0.00 0.00 0.00 95 1014.9
20260903111516 54 360 0.0 0.0 0.00 0.00 0.00 95 1014.8
20260903110023 54 360 0.0 0.0 0.00 0.00 0.00 95 1014.6
20260903104533 54 360 0.0 0.0 0.00 0.00 0.00 95 1014.8
20260903103010 54 360 0.0 0.0 0.00 0.00 0.00 95 1015.0
20260903101519 55 360 0.0 0.0 0.00 0.00 0.00 95 1014.7
20260903100024 55 360 0.0 0.0 0.00 0.00 0.00 95 1014.6
20260903094527 55 360 0.0 0.0 0.00 0.00 0.00 95 1014.6
20260903093032 56 360 0.0 0.0 0.00 0.00 0.00 95 1014.6
20260903091512 56 360 0.0 0.0 0.00 0.00 0.00 95 1014.4
20260903090014 56 360 0.0 0.0 0.00 0.00 0.00 95 1014.4
20260903084523 56 360 0.0 0.0 0.00 0.00 0.00 95 1014.5
20260903083028 56 360 0.0 0.0 0.00 0.00 0.00 95 1014.5
20260903081534 56 360 0.0 0.0 0.00 0.00 0.00 95 1014.5
20260903080013 56 360 0.0 0.0 0.00 0.00 0.00 95 1014.4
20260903074518 56 360 0.0 0.0 0.00 0.00 0.00 95 1014.5
20260903073038 56 360 0.0 0.0 0.00 0.00 0.00 95 1014.5
20260903071530 57 360 0.0 0.0 0.00 0.00 0.00 95 1014.4
20260903070033 57 360 0.0 0.0 0.00 0.00 0.00 95 1014.3
20260903064514 57 360 0.0 0.0 0.00 0.00 0.00 94 1014.5
20260903063024 57 360 0.0 0.0 0.00 0.00 0.00 94 1014.4
20260903061527 57 360 0.0 0.0 0.00 0.00 0.00 94 1014.3
20260903060010 58 360 0.0 0.0 0.00 0.00 0.00 94 1014.2
20260903054510 58 360 0.0 0.0 0.00 0.00 0.00 94 1014.1
20260903053018 58 360 0.0 0.0 0.00 0.00 0.00 94 1014.2
20260903051525 58 360 0.0 0.0 0.00 0.00 0.00 94 1014.3
20260903050031 58 360 0.0 0.0 0.00 0.00 0.00 94 1014.2
20260903044507 59 360 0.0 0.0 0.00 0.00 0.00 93 1014.3
20260903043011 59 360 0.0 0.0 0.00 0.00 0.00 93 1014.2